START_TIME,STEP,MOV.,P11,t_acc.,P23,t_acc.,P27,t_acc.,A4,t_acc.
1986-01-26 03:00:24.430 ,3,0,10.,4.8,0.,4.8,0.,4.8,0.,4.8
1986-01-26 03:00:29.230 ,3,0,10.,4.8,0.,4.8,0.,4.8,0.,4.8
1986-01-26 03:00:34.030 ,3,0,8.,4.8,0.,4.8,0.,4.8,0.,4.8
1986-01-26 03:00:38.830 ,3,0,5.,4.8,0.,4.8,0.,4.8,0.,4.8
1986-01-26 03:00:43.630 ,3,0,7.,4.8,0.,4.8,0.,4.8,0.,4.8
1986-01-26 03:00:48.430 ,2,0,6.,4.8,0.,4.8,0.,4.8,0.,4.8
1986-01-26 03:00:53.230 ,2,0,8.,4.8,0.,4.8,0.,4.8,0.,4.8
1986-01-26 03:00:58.030 ,2,0,5.,4.8,0.,4.8,0.,4.8,0.,4.8
1986-01-26 03:01:02.830 ,2,0,4.,4.8,0.,4.8,0.,4.8,0.,4.8
1986-01-26 03:01:07.630 ,2,0,10.,4.8,0.,4.8,0.,4.8,0.,4.8
1986-01-26 03:01:12.430 ,2,0,7.,4.8,0.,4.8,0.,4.8,0.,4.8
1986-01-26 03:01:17.230 ,2,0,9.,4.8,0.,4.8,0.,4.8,0.,4.8
1986-01-26 03:01:22.030 ,2,0,8.,4.8,0.,4.8,0.,4.8,0.,4.8
1986-01-26 03:01:26.830 ,2,0,8.,4.8,0.,4.8,0.,4.8,0.,4.8
1986-01-26 03:01:31.630 ,2,0,7.,4.8,0.,4.8,0.,4.8,0.,4.8
1986-01-26 03:01:36.430 ,1,0,5.,4.8,0.,4.8,0.,4.8,0.,4.8
1986-01-26 03:01:41.230 ,1,0,9.,4.8,0.,4.8,0.,4.8,0.,4.8
1986-01-26 03:01:46.030 ,1,0,7.,4.8,0.,4.8,0.,4.8,0.,4.8
1986-01-26 03:01:50.830 ,1,0,3.,4.8,0.,4.8,0.,4.8,0.,4.8
1986-01-26 03:01:55.630 ,1,0,6.,4.8,0.,4.8,0.,4.8,0.,4.8
1986-01-26 03:02:00.430 ,1,0,7.,4.8,0.,4.8,0.,4.8,0.,4.8
1986-01-26 03:02:05.230 ,1,0,3.,4.8,0.,4.8,0.,4.8,0.,4.8
1986-01-26 03:02:10.030 ,1,0,8.,4.8,0.,4.8,0.,4.8,0.,4.8
1986-01-26 03:02:14.830 ,1,0,8.,4.8,0.,4.8,0.,4.8,0.,4.8
1986-01-26 03:02:19.630 ,1,0,5.,4.8,0.,4.8,0.,4.8,0.,4.8
1986-01-26 03:02:24.430 ,0,0,14.,4.8,0.,4.8,0.,4.8,0.,4.8
1986-01-26 03:02:29.230 ,0,0,7.,4.8,0.,4.8,0.,4.8,0.,4.8
1986-01-26 03:02:34.030 ,0,0,10.,4.8,0.,4.8,0.,4.8,0.,4.8
1986-01-26 03:02:38.830 ,0,0,9.,4.8,0.,4.8,0.,4.8,0.,4.8
1986-01-26 03:02:43.630 ,0,0,8.,4.8,0.,4.8,0.,4.8,0.,4.8
1986-01-26 03:02:48.430 ,0,0,4.,4.8,0.,4.8,0.,4.8,0.,4.8
1986-01-26 03:02:53.230 ,0,0,4.,4.8,0.,4.8,0.,4.8,0.,4.8
1986-01-26 03:02:58.030 ,0,0,12.,4.8,0.,4.8,0.,4.8,0.,4.8
1986-01-26 03:03:02.830 ,0,0,7.,4.8,0.,4.8,0.,4.8,0.,4.8
1986-01-26 03:03:07.630 ,0,0,1.,4.8,0.,4.8,0.,4.8,0.,4.8
1986-01-26 03:03:12.430 ,0,0,4.,4.8,0.,4.8,0.,4.8,0.,4.8
1986-01-26 03:03:17.230 ,0,0,4.,4.8,0.,4.8,0.,4.8,0.,4.8
1986-01-26 03:03:22.030 ,0,0,13.,4.8,0.,4.8,0.,4.8,0.,4.8
1986-01-26 03:03:26.830 ,0,0,4.,4.8,0.,4.8,0.,4.8,0.,4.8
1986-01-26 03:03:31.630 ,0,0,7.,4.8,0.,4.8,0.,4.8,0.,4.8
1986-01-26 03:03:36.430 ,0,0,8.,4.8,0.,4.8,0.,4.8,0.,4.8
1986-01-26 03:03:41.230 ,0,0,5.,4.8,0.,4.8,0.,4.8,0.,4.8
1986-01-26 03:03:46.030 ,0,0,7.,4.8,0.,4.8,0.,4.8,0.,4.8
1986-01-26 03:03:50.830 ,0,0,3.,4.8,0.,4.8,0.,4.8,0.,4.8
1986-01-26 03:03:55.630 ,0,0,10.,4.8,0.,4.8,0.,4.8,0.,4.8
1986-01-26 03:04:00.430 ,1,0,9.,4.8,0.,4.8,0.,4.8,0.,4.8
1986-01-26 03:04:05.230 ,1,0,6.,4.8,0.,4.8,0.,4.8,0.,4.8
1986-01-26 03:04:10.030 ,1,0,8.,4.8,0.,4.8,0.,4.8,0.,4.8
1986-01-26 03:04:14.830 ,1,0,8.,4.8,0.,4.8,0.,4.8,0.,4.8
1986-01-26 03:04:19.630 ,1,0,11.,4.8,0.,4.8,0.,4.8,0.,4.8
1986-01-26 03:04:24.430 ,1,0,4.,4.8,0.,4.8,0.,4.8,0.,4.8
1986-01-26 03:04:29.230 ,1,0,8.,4.8,0.,4.8,0.,4.8,0.,4.8
1986-01-26 03:04:34.030 ,1,0,11.,4.8,0.,4.8,0.,4.8,0.,4.8
1986-01-26 03:04:38.830 ,1,0,8.,4.8,0.,4.8,0.,4.8,0.,4.8
1986-01-26 03:04:43.630 ,1,0,4.,4.8,0.,4.8,0.,4.8,0.,4.8
1986-01-26 03:04:48.430 ,2,0,5.,4.8,0.,4.8,0.,4.8,0.,4.8
1986-01-26 03:04:53.230 ,2,0,6.,4.8,0.,4.8,0.,4.8,0.,4.8
1986-01-26 03:04:58.030 ,2,0,10.,4.8,0.,4.8,0.,4.8,0.,4.8
1986-01-26 03:05:02.830 ,2,0,7.,4.8,0.,4.8,0.,4.8,0.,4.8
1986-01-26 03:05:07.630 ,2,0,6.,4.8,0.,4.8,0.,4.8,0.,4.8
1986-01-26 03:05:12.430 ,2,0,8.,4.8,0.,4.8,0.,4.8,0.,4.8
1986-01-26 03:05:17.230 ,2,0,8.,4.8,0.,4.8,0.,4.8,0.,4.8
1986-01-26 03:05:22.030 ,2,0,9.,4.8,0.,4.8,0.,4.8,0.,4.8
1986-01-26 03:05:26.830 ,2,0,10.,4.8,0.,4.8,0.,4.8,0.,4.8
1986-01-26 03:05:31.630 ,2,0,7.,4.8,0.,4.8,0.,4.8,0.,4.8
1986-01-26 03:05:36.430 ,3,0,16.,4.8,0.,4.8,0.,4.8,0.,4.8
1986-01-26 03:05:41.230 ,3,0,9.,4.8,0.,4.8,0.,4.8,0.,4.8
1986-01-26 03:05:46.030 ,3,0,8.,4.8,0.,4.8,0.,4.8,0.,4.8
1986-01-26 03:05:50.830 ,3,0,6.,4.8,0.,4.8,0.,4.8,0.,4.8
1986-01-26 03:05:55.630 ,3,0,8.,4.8,0.,4.8,0.,4.8,0.,4.8
1986-01-26 03:06:00.430 ,3,0,7.,4.8,0.,4.8,0.,4.8,0.,4.8
1986-01-26 03:06:05.230 ,3,0,10.,4.8,0.,4.8,0.,4.8,0.,4.8
1986-01-26 03:06:10.030 ,3,0,5.,4.8,0.,4.8,0.,4.8,0.,4.8
1986-01-26 03:06:14.830 ,3,0,8.,4.8,0.,4.8,0.,4.8,0.,4.8
1986-01-26 03:06:19.630 ,3,0,6.,4.8,0.,4.8,0.,4.8,0.,4.8
1986-01-26 03:06:24.430 ,4,0,10.,4.8,0.,4.8,0.,4.8,0.,4.8
1986-01-26 03:06:29.230 ,4,0,6.,4.8,0.,4.8,0.,4.8,0.,4.8
1986-01-26 03:06:34.030 ,4,0,10.,4.8,0.,4.8,0.,4.8,0.,4.8
1986-01-26 03:06:38.830 ,4,0,8.,4.8,0.,4.8,0.,4.8,0.,4.8
1986-01-26 03:06:43.630 ,4,0,15.,4.8,0.,4.8,0.,4.8,0.,4.8
1986-01-26 03:06:48.430 ,4,0,11.,4.8,0.,4.8,0.,4.8,0.,4.8
1986-01-26 03:06:53.230 ,4,0,7.,4.8,0.,4.8,0.,4.8,0.,4.8
1986-01-26 03:06:58.030 ,4,0,8.,4.8,0.,4.8,0.,4.8,0.,4.8
1986-01-26 03:07:02.830 ,4,0,7.,4.8,0.,4.8,0.,4.8,0.,4.8
1986-01-26 03:07:07.630 ,4,0,7.,4.8,0.,4.8,0.,4.8,0.,4.8
1986-01-26 03:07:12.430 ,5,0,3.,4.8,0.,4.8,0.,4.8,0.,4.8
1986-01-26 03:07:17.230 ,5,0,8.,4.8,0.,4.8,0.,4.8,0.,4.8
1986-01-26 03:07:22.030 ,5,0,5.,4.8,0.,4.8,0.,4.8,0.,4.8
1986-01-26 03:07:26.830 ,5,0,7.,4.8,0.,4.8,0.,4.8,0.,4.8
1986-01-26 03:07:31.630 ,5,0,7.,4.8,0.,4.8,0.,4.8,0.,4.8
1986-01-26 03:07:36.430 ,5,0,8.,4.8,0.,4.8,0.,4.8,0.,4.8
1986-01-26 03:07:41.230 ,5,0,5.,4.8,0.,4.8,0.,4.8,0.,4.8
1986-01-26 03:07:46.030 ,5,0,9.,4.8,0.,4.8,0.,4.8,0.,4.8
1986-01-26 03:07:50.830 ,5,0,1.,4.8,0.,4.8,0.,4.8,0.,4.8
1986-01-26 03:07:55.630 ,5,0,5.,4.8,0.,4.8,0.,4.8,0.,4.8
1986-01-26 03:08:00.430 ,6,0,6.,4.8,0.,4.8,0.,4.8,0.,4.8
1986-01-26 03:08:05.230 ,6,0,6.,4.8,0.,4.8,0.,4.8,0.,4.8
1986-01-26 03:08:10.030 ,6,0,16.,4.8,0.,4.8,0.,4.8,0.,4.8
1986-01-26 03:08:14.830 ,6,0,1.,4.8,0.,4.8,0.,4.8,0.,4.8
1986-01-26 03:08:19.630 ,6,0,8.,4.8,0.,4.8,0.,4.8,0.,4.8
1986-01-26 03:08:24.430 ,6,0,5.,4.8,0.,4.8,0.,4.8,0.,4.8
1986-01-26 03:08:29.230 ,6,0,11.,4.8,0.,4.8,0.,4.8,0.,4.8
1986-01-26 03:08:34.030 ,6,0,6.,4.8,0.,4.8,0.,4.8,0.,4.8
1986-01-26 03:08:38.830 ,6,0,10.,4.8,0.,4.8,0.,4.8,0.,4.8
1986-01-26 03:08:43.630 ,6,0,5.,4.8,0.,4.8,0.,4.8,0.,4.8
1986-01-26 03:08:48.430 ,7,0,7.,4.8,0.,4.8,0.,4.8,0.,4.8
1986-01-26 03:08:53.230 ,7,0,8.,4.8,0.,4.8,0.,4.8,0.,4.8
1986-01-26 03:08:58.030 ,7,0,8.,4.8,0.,4.8,0.,4.8,0.,4.8
1986-01-26 03:09:02.830 ,7,0,3.,4.8,0.,4.8,0.,4.8,0.,4.8
1986-01-26 03:09:07.630 ,7,0,5.,4.8,0.,4.8,0.,4.8,0.,4.8
1986-01-26 03:09:12.430 ,7,0,5.,4.8,0.,4.8,0.,4.8,0.,4.8
1986-01-26 03:09:17.230 ,7,0,5.,4.8,0.,4.8,0.,4.8,0.,4.8
1986-01-26 03:09:22.030 ,7,0,5.,4.8,0.,4.8,0.,4.8,0.,4.8
1986-01-26 03:09:26.830 ,7,0,10.,4.8,0.,4.8,0.,4.8,0.,4.8
1986-01-26 03:09:31.630 ,7,0,10.,4.8,0.,4.8,0.,4.8,0.,4.8
1986-01-26 03:09:36.430 ,7,0,9.,4.8,0.,4.8,0.,4.8,0.,4.8
1986-01-26 03:09:41.230 ,7,0,13.,4.8,0.,4.8,0.,4.8,0.,4.8
1986-01-26 03:09:46.030 ,7,0,6.,4.8,0.,4.8,0.,4.8,0.,4.8
1986-01-26 03:09:50.830 ,7,0,10.,4.8,0.,4.8,0.,4.8,0.,4.8
1986-01-26 03:09:55.630 ,7,0,10.,4.8,0.,4.8,0.,4.8,0.,4.8
1986-01-26 03:10:00.430 ,7,0,16.,4.8,0.,4.8,0.,4.8,0.,4.8
1986-01-26 03:10:05.230 ,7,0,5.,4.8,0.,4.8,0.,4.8,0.,4.8
1986-01-26 03:10:10.030 ,7,0,10.,4.8,0.,4.8,0.,4.8,0.,4.8
1986-01-26 03:10:14.830 ,7,0,12.,4.8,0.,4.8,0.,4.8,0.,4.8
1986-01-26 03:10:19.630 ,7,0,7.,4.8,0.,4.8,0.,4.8,0.,4.8
1986-01-26 03:10:24.430 ,6,0,9.,4.8,0.,4.8,0.,4.8,0.,4.8
1986-01-26 03:10:29.230 ,6,0,5.,4.8,0.,4.8,0.,4.8,0.,4.8
1986-01-26 03:10:34.030 ,6,0,4.,4.8,0.,4.8,0.,4.8,0.,4.8
1986-01-26 03:10:38.830 ,6,0,8.,4.8,0.,4.8,0.,4.8,0.,4.8
1986-01-26 03:10:43.630 ,6,0,6.,4.8,0.,4.8,0.,4.8,0.,4.8
1986-01-26 03:10:48.430 ,6,0,7.,4.8,0.,4.8,0.,4.8,0.,4.8
1986-01-26 03:10:53.230 ,6,0,2.,4.8,0.,4.8,0.,4.8,0.,4.8
1986-01-26 03:10:58.030 ,6,0,9.,4.8,0.,4.8,0.,4.8,0.,4.8
1986-01-26 03:11:02.830 ,6,0,7.,4.8,0.,4.8,0.,4.8,0.,4.8
1986-01-26 03:11:07.630 ,6,0,10.,4.8,0.,4.8,0.,4.8,0.,4.8
1986-01-26 03:11:12.430 ,5,0,8.,4.8,0.,4.8,0.,4.8,0.,4.8
1986-01-26 03:11:17.230 ,5,0,7.,4.8,0.,4.8,0.,4.8,0.,4.8
1986-01-26 03:11:22.030 ,5,0,8.,4.8,0.,4.8,0.,4.8,0.,4.8
1986-01-26 03:11:26.830 ,5,0,9.,4.8,0.,4.8,0.,4.8,0.,4.8
1986-01-26 03:11:31.630 ,5,0,7.,4.8,0.,4.8,0.,4.8,0.,4.8
1986-01-26 03:11:36.430 ,5,0,10.,4.8,0.,4.8,0.,4.8,0.,4.8
1986-01-26 03:11:41.230 ,5,0,12.,4.8,0.,4.8,0.,4.8,0.,4.8
1986-01-26 03:11:46.030 ,5,0,6.,4.8,0.,4.8,0.,4.8,0.,4.8
1986-01-26 03:11:50.830 ,5,0,5.,4.8,0.,4.8,0.,4.8,0.,4.8
1986-01-26 03:11:55.630 ,5,0,6.,4.8,0.,4.8,0.,4.8,0.,4.8
1986-01-26 03:12:00.430 ,4,0,5.,4.8,0.,4.8,0.,4.8,0.,4.8
1986-01-26 03:12:05.230 ,4,0,6.,4.8,0.,4.8,0.,4.8,0.,4.8
1986-01-26 03:12:10.030 ,4,0,10.,4.8,0.,4.8,0.,4.8,0.,4.8
1986-01-26 03:12:14.830 ,4,0,5.,4.8,0.,4.8,0.,4.8,0.,4.8
1986-01-26 03:12:19.630 ,4,0,10.,4.8,0.,4.8,0.,4.8,0.,4.8
1986-01-26 03:12:24.430 ,4,0,12.,4.8,0.,4.8,0.,4.8,0.,4.8
1986-01-26 03:12:29.230 ,4,0,9.,4.8,0.,4.8,0.,4.8,0.,4.8
1986-01-26 03:12:34.030 ,4,0,2.,4.8,0.,4.8,0.,4.8,0.,4.8
1986-01-26 03:12:38.830 ,4,0,7.,4.8,0.,4.8,0.,4.8,0.,4.8
1986-01-26 03:12:43.630 ,4,0,10.,4.8,0.,4.8,0.,4.8,0.,4.8
1986-01-26 03:12:48.430 ,3,0,7.,4.8,0.,4.8,0.,4.8,0.,4.8
1986-01-26 03:12:53.230 ,3,0,5.,4.8,0.,4.8,0.,4.8,0.,4.8
1986-01-26 03:12:58.030 ,3,0,5.,4.8,0.,4.8,0.,4.8,0.,4.8
1986-01-26 03:13:02.830 ,3,0,8.,4.8,0.,4.8,0.,4.8,0.,4.8
1986-01-26 03:13:07.630 ,3,0,4.,4.8,0.,4.8,0.,4.8,0.,4.8
1986-01-26 03:13:12.430 ,3,0,10.,4.8,0.,4.8,0.,4.8,0.,4.8
1986-01-26 03:13:17.230 ,3,0,7.,4.8,0.,4.8,0.,4.8,0.,4.8
1986-01-26 03:13:22.030 ,3,0,10.,4.8,0.,4.8,0.,4.8,0.,4.8
1986-01-26 03:13:26.830 ,3,0,5.,4.8,0.,4.8,0.,4.8,0.,4.8
1986-01-26 03:13:31.630 ,3,0,7.,4.8,0.,4.8,0.,4.8,0.,4.8
1986-01-26 03:13:36.430 ,2,0,7.,4.8,0.,4.8,0.,4.8,1.,4.8
1986-01-26 03:13:41.230 ,2,0,13.,4.8,0.,4.8,0.,4.8,0.,4.8
1986-01-26 03:13:46.030 ,2,0,10.,4.8,0.,4.8,0.,4.8,0.,4.8
1986-01-26 03:13:50.830 ,2,0,12.,4.8,0.,4.8,0.,4.8,0.,4.8
1986-01-26 03:13:55.630 ,2,0,4.,4.8,0.,4.8,0.,4.8,0.,4.8
1986-01-26 03:14:00.430 ,2,0,7.,4.8,0.,4.8,0.,4.8,0.,4.8
1986-01-26 03:14:05.230 ,2,0,3.,4.8,0.,4.8,0.,4.8,0.,4.8
1986-01-26 03:14:10.030 ,2,0,7.,4.8,0.,4.8,0.,4.8,0.,4.8
1986-01-26 03:14:14.830 ,2,0,10.,4.8,0.,4.8,0.,4.8,0.,4.8
1986-01-26 03:14:19.630 ,2,0,8.,4.8,0.,4.8,0.,4.8,0.,4.8
1986-01-26 03:14:24.430 ,1,0,10.,4.8,0.,4.8,0.,4.8,0.,4.8
1986-01-26 03:14:29.230 ,1,0,8.,4.8,0.,4.8,0.,4.8,0.,4.8
1986-01-26 03:14:34.030 ,1,0,5.,4.8,0.,4.8,0.,4.8,0.,4.8
1986-01-26 03:14:38.830 ,1,0,5.,4.8,0.,4.8,0.,4.8,0.,4.8
1986-01-26 03:14:43.630 ,1,0,3.,4.8,0.,4.8,0.,4.8,0.,4.8
1986-01-26 03:14:48.430 ,1,0,7.,4.8,0.,4.8,0.,4.8,0.,4.8
1986-01-26 03:14:53.230 ,1,0,7.,4.8,0.,4.8,0.,4.8,0.,4.8
1986-01-26 03:14:58.030 ,1,0,6.,4.8,0.,4.8,0.,4.8,0.,4.8
1986-01-26 03:15:02.830 ,1,0,8.,4.8,0.,4.8,0.,4.8,0.,4.8
1986-01-26 03:15:07.630 ,1,0,7.,4.8,0.,4.8,0.,4.8,0.,4.8
1986-01-26 03:15:12.430 ,0,0,9.,4.8,0.,4.8,0.,4.8,0.,4.8
1986-01-26 03:15:17.230 ,0,0,3.,4.8,0.,4.8,0.,4.8,0.,4.8
1986-01-26 03:15:22.030 ,0,0,10.,4.8,0.,4.8,0.,4.8,0.,4.8
1986-01-26 03:15:26.830 ,0,0,10.,4.8,0.,4.8,0.,4.8,0.,4.8
1986-01-26 03:15:31.630 ,0,0,4.,4.8,0.,4.8,0.,4.8,0.,4.8
1986-01-26 03:15:36.430 ,0,0,9.,4.8,0.,4.8,0.,4.8,0.,4.8
1986-01-26 03:15:41.230 ,0,0,9.,4.8,0.,4.8,0.,4.8,0.,4.8
1986-01-26 03:15:46.030 ,0,0,9.,4.8,0.,4.8,0.,4.8,0.,4.8
1986-01-26 03:15:50.830 ,0,0,5.,4.8,0.,4.8,0.,4.8,0.,4.8
1986-01-26 03:15:55.630 ,0,0,5.,4.8,0.,4.8,0.,4.8,0.,4.8
1986-01-26 03:16:00.430 ,0,0,12.,4.8,0.,4.8,0.,4.8,0.,4.8
1986-01-26 03:16:05.230 ,0,0,8.,4.8,0.,4.8,0.,4.8,0.,4.8
1986-01-26 03:16:10.030 ,0,0,2.,4.8,0.,4.8,0.,4.8,0.,4.8
1986-01-26 03:16:14.830 ,0,0,7.,4.8,0.,4.8,0.,4.8,0.,4.8
1986-01-26 03:16:19.630 ,0,0,9.,4.8,0.,4.8,0.,4.8,0.,4.8
1986-01-26 03:16:24.430 ,0,0,8.,4.8,0.,4.8,0.,4.8,0.,4.8
1986-01-26 03:16:29.230 ,0,0,5.,4.8,0.,4.8,0.,4.8,0.,4.8
1986-01-26 03:16:34.030 ,0,0,7.,4.8,0.,4.8,0.,4.8,0.,4.8
1986-01-26 03:16:38.830 ,0,0,10.,4.8,0.,4.8,0.,4.8,0.,4.8
1986-01-26 03:16:43.630 ,0,0,8.,4.8,0.,4.8,0.,4.8,0.,4.8
1986-01-26 03:16:48.430 ,1,0,7.,4.8,0.,4.8,0.,4.8,0.,4.8
1986-01-26 03:16:53.230 ,1,0,3.,4.8,0.,4.8,0.,4.8,0.,4.8
1986-01-26 03:16:58.030 ,1,0,11.,4.8,0.,4.8,0.,4.8,0.,4.8
1986-01-26 03:17:02.830 ,1,0,8.,4.8,0.,4.8,0.,4.8,0.,4.8
1986-01-26 03:17:07.630 ,1,0,9.,4.8,0.,4.8,0.,4.8,0.,4.8
1986-01-26 03:17:12.430 ,1,0,11.,4.8,0.,4.8,0.,4.8,0.,4.8
1986-01-26 03:17:17.230 ,1,0,8.,4.8,0.,4.8,0.,4.8,0.,4.8
1986-01-26 03:17:22.030 ,1,0,12.,4.8,0.,4.8,0.,4.8,0.,4.8
1986-01-26 03:17:26.830 ,1,0,12.,4.8,0.,4.8,0.,4.8,0.,4.8
1986-01-26 03:17:31.630 ,1,0,10.,4.8,0.,4.8,0.,4.8,0.,4.8
1986-01-26 03:17:36.430 ,2,0,4.,4.8,0.,4.8,0.,4.8,0.,4.8
1986-01-26 03:17:41.230 ,2,0,7.,4.8,0.,4.8,0.,4.8,0.,4.8
1986-01-26 03:17:46.030 ,2,0,7.,4.8,0.,4.8,0.,4.8,0.,4.8
1986-01-26 03:17:50.830 ,2,0,7.,4.8,0.,4.8,0.,4.8,0.,4.8
1986-01-26 03:17:55.630 ,2,0,11.,4.8,0.,4.8,0.,4.8,0.,4.8
1986-01-26 03:18:00.430 ,2,0,5.,4.8,0.,4.8,0.,4.8,0.,4.8
1986-01-26 03:18:05.230 ,2,0,10.,4.8,0.,4.8,0.,4.8,0.,4.8
1986-01-26 03:18:10.030 ,2,0,11.,4.8,0.,4.8,0.,4.8,0.,4.8
1986-01-26 03:18:14.830 ,2,0,8.,4.8,0.,4.8,0.,4.8,0.,4.8
1986-01-26 03:18:19.630 ,2,0,7.,4.8,0.,4.8,0.,4.8,0.,4.8
1986-01-26 03:18:24.430 ,3,0,9.,4.8,0.,4.8,0.,4.8,0.,4.8
1986-01-26 03:18:29.230 ,3,0,3.,4.8,0.,4.8,0.,4.8,0.,4.8
1986-01-26 03:18:34.030 ,3,0,8.,4.8,0.,4.8,0.,4.8,0.,4.8
1986-01-26 03:18:38.830 ,3,0,11.,4.8,0.,4.8,0.,4.8,0.,4.8
1986-01-26 03:18:43.630 ,3,0,5.,4.8,0.,4.8,0.,4.8,0.,4.8
1986-01-26 03:18:48.430 ,3,0,6.,4.8,0.,4.8,0.,4.8,0.,4.8
1986-01-26 03:18:53.230 ,3,0,14.,4.8,0.,4.8,0.,4.8,0.,4.8
1986-01-26 03:18:58.030 ,3,0,7.,4.8,0.,4.8,0.,4.8,0.,4.8
1986-01-26 03:19:02.830 ,3,0,1.,4.8,0.,4.8,0.,4.8,0.,4.8
1986-01-26 03:19:07.630 ,3,0,7.,4.8,0.,4.8,0.,4.8,0.,4.8
1986-01-26 03:19:12.430 ,4,0,11.,4.8,0.,4.8,0.,4.8,0.,4.8
1986-01-26 03:19:17.230 ,4,0,9.,4.8,0.,4.8,0.,4.8,0.,4.8
1986-01-26 03:19:22.030 ,4,0,8.,4.8,0.,4.8,0.,4.8,0.,4.8
1986-01-26 03:19:26.830 ,4,0,4.,4.8,0.,4.8,0.,4.8,0.,4.8
1986-01-26 03:19:31.630 ,4,0,5.,4.8,0.,4.8,0.,4.8,0.,4.8
1986-01-26 03:19:36.430 ,4,0,6.,4.8,0.,4.8,0.,4.8,0.,4.8
1986-01-26 03:19:41.230 ,4,0,10.,4.8,0.,4.8,0.,4.8,0.,4.8
1986-01-26 03:19:46.030 ,4,0,7.,4.8,0.,4.8,0.,4.8,0.,4.8
1986-01-26 03:19:50.830 ,4,0,4.,4.8,0.,4.8,0.,4.8,0.,4.8
1986-01-26 03:19:55.630 ,4,0,13.,4.8,0.,4.8,0.,4.8,0.,4.8
1986-01-26 03:20:00.430 ,5,0,8.,4.8,0.,4.8,0.,4.8,0.,4.8
1986-01-26 03:20:05.230 ,5,0,9.,4.8,0.,4.8,0.,4.8,0.,4.8
1986-01-26 03:20:10.030 ,5,0,7.,4.8,0.,4.8,0.,4.8,0.,4.8
1986-01-26 03:20:14.830 ,5,0,5.,4.8,0.,4.8,0.,4.8,0.,4.8
1986-01-26 03:20:19.630 ,5,0,9.,4.8,0.,4.8,0.,4.8,0.,4.8
1986-01-26 03:20:24.430 ,5,0,6.,4.8,0.,4.8,0.,4.8,0.,4.8
1986-01-26 03:20:29.230 ,5,0,5.,4.8,0.,4.8,0.,4.8,0.,4.8
1986-01-26 03:20:34.030 ,5,0,7.,4.8,0.,4.8,0.,4.8,0.,4.8
1986-01-26 03:20:38.830 ,5,0,6.,4.8,0.,4.8,0.,4.8,0.,4.8
1986-01-26 03:20:43.630 ,5,0,9.,4.8,0.,4.8,0.,4.8,0.,4.8
1986-01-26 03:20:48.430 ,6,0,10.,4.8,0.,4.8,0.,4.8,0.,4.8
1986-01-26 03:20:53.230 ,6,0,5.,4.8,0.,4.8,0.,4.8,0.,4.8
1986-01-26 03:20:58.030 ,6,0,2.,4.8,0.,4.8,0.,4.8,0.,4.8
1986-01-26 03:21:02.830 ,6,0,5.,4.8,0.,4.8,0.,4.8,0.,4.8
1986-01-26 03:21:07.630 ,6,0,5.,4.8,0.,4.8,0.,4.8,0.,4.8
1986-01-26 03:21:12.430 ,6,0,9.,4.8,0.,4.8,0.,4.8,0.,4.8
1986-01-26 03:21:17.230 ,6,0,4.,4.8,0.,4.8,0.,4.8,0.,4.8
1986-01-26 03:21:22.030 ,6,0,6.,4.8,0.,4.8,0.,4.8,0.,4.8
1986-01-26 03:21:26.830 ,6,0,8.,4.8,0.,4.8,0.,4.8,0.,4.8
1986-01-26 03:21:31.630 ,6,0,5.,4.8,0.,4.8,0.,4.8,0.,4.8
1986-01-26 03:21:36.430 ,7,0,6.,4.8,0.,4.8,0.,4.8,0.,4.8
1986-01-26 03:21:41.230 ,7,0,6.,4.8,0.,4.8,0.,4.8,0.,4.8
1986-01-26 03:21:46.030 ,7,0,4.,4.8,0.,4.8,0.,4.8,0.,4.8
1986-01-26 03:21:50.830 ,7,0,4.,4.8,0.,4.8,0.,4.8,0.,4.8
1986-01-26 03:21:55.630 ,7,0,10.,4.8,0.,4.8,0.,4.8,0.,4.8
1986-01-26 03:22:00.430 ,7,0,9.,4.8,0.,4.8,0.,4.8,0.,4.8
1986-01-26 03:22:05.230 ,7,0,13.,4.8,0.,4.8,0.,4.8,0.,4.8
1986-01-26 03:22:10.030 ,7,0,8.,4.8,0.,4.8,0.,4.8,0.,4.8
1986-01-26 03:22:14.830 ,7,0,14.,4.8,0.,4.8,0.,4.8,0.,4.8
1986-01-26 03:22:19.630 ,7,0,5.,4.8,0.,4.8,0.,4.8,0.,4.8
1986-01-26 03:22:24.430 ,7,0,7.,4.8,0.,4.8,0.,4.8,0.,4.8
1986-01-26 03:22:29.230 ,7,0,12.,4.8,0.,4.8,0.,4.8,0.,4.8
1986-01-26 03:22:34.030 ,7,0,8.,4.8,0.,4.8,0.,4.8,0.,4.8
1986-01-26 03:22:38.830 ,7,0,2.,4.8,0.,4.8,0.,4.8,0.,4.8
1986-01-26 03:22:43.630 ,7,0,7.,4.8,0.,4.8,0.,4.8,0.,4.8
1986-01-26 03:22:48.430 ,7,0,9.,4.8,0.,4.8,0.,4.8,0.,4.8
1986-01-26 03:22:53.230 ,7,0,15.,4.8,0.,4.8,0.,4.8,0.,4.8
1986-01-26 03:22:58.030 ,7,0,0.,4.8,0.,4.8,0.,4.8,0.,4.8
1986-01-26 03:23:02.830 ,7,0,10.,4.8,0.,4.8,0.,4.8,0.,4.8
1986-01-26 03:23:07.630 ,7,0,11.,4.8,0.,4.8,0.,4.8,0.,4.8
1986-01-26 03:23:12.430 ,6,0,6.,4.8,0.,4.8,0.,4.8,0.,4.8
1986-01-26 03:23:17.230 ,6,0,6.,4.8,0.,4.8,0.,4.8,0.,4.8
1986-01-26 03:23:22.030 ,6,0,4.,4.8,0.,4.8,0.,4.8,0.,4.8
1986-01-26 03:23:26.830 ,6,0,6.,4.8,0.,4.8,0.,4.8,0.,4.8
1986-01-26 03:23:31.630 ,6,0,3.,4.8,0.,4.8,0.,4.8,0.,4.8
1986-01-26 03:23:36.430 ,6,0,8.,4.8,0.,4.8,0.,4.8,0.,4.8
1986-01-26 03:23:41.230 ,6,0,7.,4.8,0.,4.8,0.,4.8,0.,4.8
1986-01-26 03:23:46.030 ,6,0,4.,4.8,0.,4.8,0.,4.8,0.,4.8
1986-01-26 03:23:50.830 ,6,0,7.,4.8,0.,4.8,0.,4.8,0.,4.8
1986-01-26 03:23:55.630 ,6,0,6.,4.8,0.,4.8,0.,4.8,0.,4.8
1986-01-26 03:24:00.430 ,5,0,8.,4.8,0.,4.8,0.,4.8,0.,4.8
1986-01-26 03:24:05.230 ,5,0,7.,4.8,0.,4.8,0.,4.8,0.,4.8
1986-01-26 03:24:10.030 ,5,0,6.,4.8,0.,4.8,0.,4.8,0.,4.8
1986-01-26 03:24:14.830 ,5,0,16.,4.8,0.,4.8,0.,4.8,0.,4.8
1986-01-26 03:24:19.630 ,5,0,6.,4.8,0.,4.8,0.,4.8,0.,4.8
1986-01-26 03:24:24.430 ,5,0,7.,4.8,0.,4.8,0.,4.8,0.,4.8
1986-01-26 03:24:29.230 ,5,0,6.,4.8,0.,4.8,0.,4.8,0.,4.8
1986-01-26 03:24:34.030 ,5,0,8.,4.8,0.,4.8,0.,4.8,0.,4.8
1986-01-26 03:24:38.830 ,5,0,4.,4.8,0.,4.8,0.,4.8,0.,4.8
1986-01-26 03:24:43.630 ,5,0,2.,4.8,0.,4.8,0.,4.8,0.,4.8
1986-01-26 03:24:48.430 ,4,0,6.,4.8,0.,4.8,0.,4.8,0.,4.8
1986-01-26 03:24:53.230 ,4,0,14.,4.8,0.,4.8,0.,4.8,0.,4.8
1986-01-26 03:24:58.030 ,4,0,3.,4.8,0.,4.8,0.,4.8,0.,4.8
1986-01-26 03:25:02.830 ,4,0,7.,4.8,0.,4.8,0.,4.8,0.,4.8
1986-01-26 03:25:07.630 ,4,0,5.,4.8,0.,4.8,0.,4.8,0.,4.8
1986-01-26 03:25:12.430 ,4,0,6.,4.8,0.,4.8,0.,4.8,0.,4.8
1986-01-26 03:25:17.230 ,4,0,7.,4.8,0.,4.8,0.,4.8,0.,4.8
1986-01-26 03:25:22.030 ,4,0,5.,4.8,0.,4.8,0.,4.8,0.,4.8
1986-01-26 03:25:26.830 ,4,0,5.,4.8,0.,4.8,0.,4.8,0.,4.8
1986-01-26 03:25:31.630 ,4,0,7.,4.8,0.,4.8,0.,4.8,0.,4.8
1986-01-26 03:25:36.430 ,3,0,15.,4.8,0.,4.8,0.,4.8,0.,4.8
1986-01-26 03:25:41.230 ,3,0,3.,4.8,0.,4.8,0.,4.8,0.,4.8
1986-01-26 03:25:46.030 ,3,0,6.,4.8,0.,4.8,0.,4.8,0.,4.8
1986-01-26 03:25:50.830 ,3,0,11.,4.8,0.,4.8,0.,4.8,0.,4.8
1986-01-26 03:25:55.630 ,3,0,4.,4.8,0.,4.8,0.,4.8,0.,4.8
1986-01-26 03:26:00.430 ,3,0,3.,4.8,0.,4.8,0.,4.8,0.,4.8
1986-01-26 03:26:05.230 ,3,0,9.,4.8,0.,4.8,0.,4.8,0.,4.8
1986-01-26 03:26:10.030 ,3,0,7.,4.8,0.,4.8,0.,4.8,0.,4.8
1986-01-26 03:26:14.830 ,3,0,8.,4.8,0.,4.8,0.,4.8,0.,4.8
1986-01-26 03:26:19.630 ,3,0,9.,4.8,0.,4.8,0.,4.8,0.,4.8
1986-01-26 03:26:24.430 ,2,0,13.,4.8,0.,4.8,0.,4.8,0.,4.8
1986-01-26 03:26:29.230 ,2,0,14.,4.8,0.,4.8,0.,4.8,0.,4.8
1986-01-26 03:26:34.030 ,2,0,6.,4.8,0.,4.8,0.,4.8,0.,4.8
1986-01-26 03:26:38.830 ,2,0,11.,4.8,0.,4.8,0.,4.8,0.,4.8
1986-01-26 03:26:43.630 ,2,0,5.,4.8,0.,4.8,0.,4.8,0.,4.8
1986-01-26 03:26:48.430 ,2,0,6.,4.8,0.,4.8,0.,4.8,0.,4.8
1986-01-26 03:26:53.230 ,2,0,2.,4.8,0.,4.8,0.,4.8,0.,4.8
1986-01-26 03:26:58.030 ,2,0,5.,4.8,0.,4.8,0.,4.8,0.,4.8
1986-01-26 03:27:02.830 ,2,0,14.,4.8,0.,4.8,0.,4.8,0.,4.8
1986-01-26 03:27:07.630 ,2,0,5.,4.8,0.,4.8,0.,4.8,0.,4.8
1986-01-26 03:27:12.430 ,1,0,3.,4.8,0.,4.8,0.,4.8,0.,4.8
1986-01-26 03:27:17.230 ,1,0,12.,4.8,0.,4.8,0.,4.8,0.,4.8
1986-01-26 03:27:22.030 ,1,0,4.,4.8,0.,4.8,0.,4.8,0.,4.8
1986-01-26 03:27:26.830 ,1,0,4.,4.8,0.,4.8,0.,4.8,0.,4.8
1986-01-26 03:27:31.630 ,1,0,1.,4.8,0.,4.8,0.,4.8,0.,4.8
1986-01-26 03:27:36.430 ,1,0,6.,4.8,0.,4.8,0.,4.8,0.,4.8
1986-01-26 03:27:41.230 ,1,0,7.,4.8,0.,4.8,0.,4.8,0.,4.8
1986-01-26 03:27:46.030 ,1,0,9.,4.8,0.,4.8,0.,4.8,0.,4.8
1986-01-26 03:27:50.830 ,1,0,9.,4.8,0.,4.8,0.,4.8,0.,4.8
1986-01-26 03:27:55.630 ,1,0,9.,4.8,0.,4.8,0.,4.8,0.,4.8
1986-01-26 03:28:00.430 ,0,0,8.,4.8,0.,4.8,0.,4.8,0.,4.8
1986-01-26 03:28:05.230 ,0,0,6.,4.8,0.,4.8,0.,4.8,0.,4.8
1986-01-26 03:28:10.030 ,0,0,6.,4.8,0.,4.8,0.,4.8,0.,4.8
1986-01-26 03:28:14.830 ,0,0,7.,4.8,0.,4.8,0.,4.8,0.,4.8
1986-01-26 03:28:19.630 ,0,0,6.,4.8,0.,4.8,0.,4.8,0.,4.8
1986-01-26 03:28:24.430 ,0,0,8.,4.8,0.,4.8,0.,4.8,0.,4.8
1986-01-26 03:28:29.230 ,0,0,8.,4.8,0.,4.8,0.,4.8,0.,4.8
1986-01-26 03:28:34.030 ,0,0,4.,4.8,0.,4.8,0.,4.8,0.,4.8
1986-01-26 03:28:38.830 ,0,0,9.,4.8,0.,4.8,0.,4.8,0.,4.8
1986-01-26 03:28:43.630 ,0,0,14.,4.8,0.,4.8,0.,4.8,0.,4.8
1986-01-26 03:28:48.430 ,0,0,9.,4.8,0.,4.8,0.,4.8,0.,4.8
1986-01-26 03:28:53.230 ,0,0,5.,4.8,0.,4.8,0.,4.8,0.,4.8
1986-01-26 03:28:58.030 ,0,0,10.,4.8,0.,4.8,0.,4.8,0.,4.8
1986-01-26 03:29:02.830 ,0,0,8.,4.8,0.,4.8,0.,4.8,0.,4.8
1986-01-26 03:29:07.630 ,0,0,6.,4.8,0.,4.8,0.,4.8,0.,4.8
1986-01-26 03:29:12.430 ,0,0,8.,4.8,0.,4.8,0.,4.8,0.,4.8
1986-01-26 03:29:17.230 ,0,0,2.,4.8,0.,4.8,0.,4.8,0.,4.8
1986-01-26 03:29:22.030 ,0,0,4.,4.8,0.,4.8,0.,4.8,0.,4.8
1986-01-26 03:29:26.830 ,0,0,8.,4.8,0.,4.8,0.,4.8,0.,4.8
1986-01-26 03:29:31.630 ,0,0,4.,4.8,0.,4.8,0.,4.8,0.,4.8
1986-01-26 03:29:36.430 ,1,0,8.,4.8,0.,4.8,0.,4.8,0.,4.8
1986-01-26 03:29:41.230 ,1,0,8.,4.8,0.,4.8,0.,4.8,0.,4.8
1986-01-26 03:29:46.030 ,1,0,6.,4.8,0.,4.8,0.,4.8,0.,4.8
1986-01-26 03:29:50.830 ,1,0,12.,4.8,0.,4.8,0.,4.8,0.,4.8
1986-01-26 03:29:55.630 ,1,0,6.,4.8,0.,4.8,0.,4.8,0.,4.8
1986-01-26 03:30:00.430 ,1,0,7.,4.8,0.,4.8,0.,4.8,0.,4.8
1986-01-26 03:30:05.230 ,1,0,6.,4.8,0.,4.8,0.,4.8,0.,4.8
1986-01-26 03:30:10.030 ,1,0,7.,4.8,0.,4.8,0.,4.8,0.,4.8
1986-01-26 03:30:14.830 ,1,0,6.,4.8,0.,4.8,0.,4.8,0.,4.8
1986-01-26 03:30:19.630 ,1,0,10.,4.8,0.,4.8,0.,4.8,0.,4.8
1986-01-26 03:30:24.430 ,2,0,7.,4.8,0.,4.8,0.,4.8,0.,4.8
1986-01-26 03:30:29.230 ,2,0,5.,4.8,0.,4.8,0.,4.8,0.,4.8
1986-01-26 03:30:34.030 ,2,0,9.,4.8,0.,4.8,0.,4.8,0.,4.8
1986-01-26 03:30:38.830 ,2,0,8.,4.8,0.,4.8,0.,4.8,0.,4.8
1986-01-26 03:30:43.630 ,2,0,9.,4.8,0.,4.8,0.,4.8,0.,4.8
1986-01-26 03:30:48.430 ,2,0,6.,4.8,0.,4.8,0.,4.8,0.,4.8
1986-01-26 03:30:53.230 ,2,0,10.,4.8,0.,4.8,0.,4.8,0.,4.8
1986-01-26 03:30:58.030 ,2,0,11.,4.8,0.,4.8,0.,4.8,0.,4.8
1986-01-26 03:31:02.830 ,2,0,5.,4.8,0.,4.8,0.,4.8,0.,4.8
1986-01-26 03:31:07.630 ,2,0,5.,4.8,0.,4.8,0.,4.8,0.,4.8
1986-01-26 03:31:12.430 ,3,0,6.,4.8,0.,4.8,0.,4.8,0.,4.8
1986-01-26 03:31:17.230 ,3,0,7.,4.8,0.,4.8,0.,4.8,0.,4.8
1986-01-26 03:31:22.030 ,3,0,8.,4.8,0.,4.8,0.,4.8,0.,4.8
1986-01-26 03:31:26.830 ,3,0,2.,4.8,0.,4.8,0.,4.8,0.,4.8
1986-01-26 03:31:31.630 ,3,0,5.,4.8,0.,4.8,0.,4.8,0.,4.8
1986-01-26 03:31:36.430 ,3,0,7.,4.8,0.,4.8,0.,4.8,0.,4.8
1986-01-26 03:31:41.230 ,3,0,8.,4.8,0.,4.8,0.,4.8,0.,4.8
1986-01-26 03:31:46.030 ,3,0,10.,4.8,0.,4.8,0.,4.8,0.,4.8
1986-01-26 03:31:50.830 ,3,0,12.,4.8,0.,4.8,0.,4.8,0.,4.8
1986-01-26 03:31:55.630 ,3,0,8.,4.8,0.,4.8,0.,4.8,0.,4.8
1986-01-26 03:32:00.430 ,4,0,5.,4.8,0.,4.8,0.,4.8,0.,4.8
1986-01-26 03:32:05.230 ,4,0,5.,4.8,0.,4.8,0.,4.8,0.,4.8
1986-01-26 03:32:10.030 ,4,0,8.,4.8,0.,4.8,0.,4.8,0.,4.8
1986-01-26 03:32:14.830 ,4,0,10.,4.8,0.,4.8,0.,4.8,0.,4.8
1986-01-26 03:32:19.630 ,4,0,4.,4.8,0.,4.8,0.,4.8,0.,4.8
1986-01-26 03:32:24.430 ,4,0,7.,4.8,0.,4.8,0.,4.8,0.,4.8
1986-01-26 03:32:29.230 ,4,0,5.,4.8,0.,4.8,0.,4.8,0.,4.8
1986-01-26 03:32:34.030 ,4,0,5.,4.8,0.,4.8,0.,4.8,0.,4.8
1986-01-26 03:32:38.830 ,4,0,5.,4.8,0.,4.8,0.,4.8,0.,4.8
1986-01-26 03:32:43.630 ,4,0,5.,4.8,0.,4.8,0.,4.8,0.,4.8
1986-01-26 03:32:48.430 ,5,0,8.,4.8,0.,4.8,0.,4.8,0.,4.8
1986-01-26 03:32:53.230 ,5,0,7.,4.8,0.,4.8,0.,4.8,0.,4.8
1986-01-26 03:32:58.030 ,5,0,6.,4.8,0.,4.8,0.,4.8,0.,4.8
1986-01-26 03:33:02.830 ,5,0,9.,4.8,0.,4.8,0.,4.8,0.,4.8
1986-01-26 03:33:07.630 ,5,0,4.,4.8,0.,4.8,0.,4.8,0.,4.8
1986-01-26 03:33:12.430 ,5,0,7.,4.8,0.,4.8,0.,4.8,0.,4.8